Hermon, NY (13652)

4:12 AM EDT on September 01, 2015 (GMT -0400)
Martin Tract | | Change Station
CLOSE
Current Station
Personal Weather Station
Location: Canton, NY
Elevation: 407 ft
Nearby Weather Stations

Elev 407 ft 44.60 °N, 75.18 °W | Updated 14 minutes ago

Partly Cloudy
Partly Cloudy
60.2 °F
Feels Like 60.2 °F
N
0.0
Wind Variable Wind from NNW
Gusts 0.0 mph

Today
High -- | Low -- °F
--% Chance of Precip.
Yesterday
High -- | Low -- °F
Precip. -- in
6:23 AM 7:37 PM
Waning Gibbous, 90% visible
Pressure 30.04 in
Visibility 0.8 miles
Clouds
Dew Point 59 °F
Humidity 94%
Rainfall 0.00 in
Snow Depth Not available.
UV Not available.
Pollen 9.30 out of 12
Air Quality Not available.
Flu Activity Not available.
METAR KMSS 010753Z AUTO 00000KT 3/4SM BR VV004 13/13 A3004 RMK AO2 SLP171 T01330128
Pressure 30.04 in
Visibility 0.8 miles
Clouds
Dew Point 59 °F
Humidity 94%
Rainfall 0.00 in
Snow Depth Not available.
UV Not available.
Pollen 9.30 out of 12
Air Quality Not available.
Flu Activity Not available.
METAR KMSS 010753Z AUTO 00000KT 3/4SM BR VV004 13/13 A3004 RMK AO2 SLP171 T01330128

10-Day Weather Forecast

×

Almanac

Astronomy

Sep. 01, 2015 Rise Set
Actual Time
Civil Twilight
Nautical Twilight
Astronomical Twilight
Moon
Length of Visible Light
Length of Day
Tomorrow will be .
, % of the Moon is Illuminated

Today's Extremes

State Highs State Lows

Community

WunderPhotos

Upload Photos

1,851,490 photos uploaded!

WunderBlogs® & News

Nearby

Air Quality

  Air Quality AQ Index Pollutant
Not available.

Snow Depth

Station Depth Elevation

Earthquake Activity

City Distance Mag. Time & Date
Minimum magnitude displayed is 2.5.

Coastal Water Temperatures

Place Temperature

Stations

Nearby Weather Stations

Station Location Temp. Windchill Dew Point Humidity Wind Precip. Elev Updated Type